Effective Sunday, March 17, 2024, the National Weather Service National Data Buoy Center will discontinue its Dial-A-Buoy Interactive Voice Response system. For more information, see Service Change Notice 24-06 (PDF).

Station KP59 - Copper Harbor, MI Image indicating link to RSS feed of recent meteorological observations for station KP59


Conditions at KP59 as of
(8:51 am EST)
1351 GMT on 03/03/2024:
     

Click on the graph icon in the table below to see a time series plot of the last five days of that observation.

5-day plot - Wind Direction Wind Direction (WDIR): S ( 190 deg true )
5-day plot - Wind Speed Wind Speed (WSPD): 8.9 kts
5-day plot - Wind Gust Wind Gust (GST): 22.9 kts
5-day plot - Atmospheric Pressure Atmospheric Pressure (PRES):29.90 in
5-day plot - Air Temperature Air Temperature (ATMP): 41.0 °F
5-day plot - Dew Point Dew Point (DEWP): 35.1 °F
5-day plot -  Wind Speed, Wind Gust and Atmospheric Pressure Combined plot of Wind Speed, Gust, and Air Pressure
Previous observations
TIME
(EST)
5-day plot - Wind Direction
WDIR
 
5-day plot - Wind Speed
WSPD
kts
5-day plot - Wind Gust
GST
kts
5-day plot - Wave Height
WVHT
ft
5-day plot - Dominant Wave Period
DPD
sec
5-day plot - Average Wave Period
APD
sec
5-day plot - Mean Wave Direction
MWD
 
5-day plot - Atmospheric Pressure
PRES
in
5-day plot - Pressure Tendency
PTDY
in
5-day plot - Air Temperature
ATMP
°F
5-day plot - Water Temperature
WTMP
°F
5-day plot - Dew Point
DEWP
°F
5-day plot - Salinity
SAL
psu
5-day plot - Visibility
VIS
nmi
5-day plot - Tide (above MLLW)
TIDE
ft
2024-03-03 07:51 am S 14.0 31.1----29.89- 41.0- 35.1---
2024-03-03 06:51 am S 12.0 25.1----29.89- 41.0- 34.0---
2024-03-03 05:51 am S 11.1 20.0----29.92- 39.9- 34.0---
2024-03-03 04:51 am S 8.0 19.0----29.95- 39.0- 34.0---
2024-03-03 03:51 amSSW 9.9 22.0----29.96- 39.0- 34.0---
2024-03-03 02:51 amSSW 7.0 21.0----29.97- 37.9- 34.0---
2024-03-03 01:51 amSSW 8.0 17.1----29.98- 39.0- 34.0---
2024-03-03 12:51 am SE 2.9-----29.96- 37.9- 34.0---
2024-03-02 11:51 pmENE 2.9-----29.96- 39.0- 34.0---
2024-03-02 10:51 pm NW 2.9-----29.96- 39.0- 34.0---
2024-03-02 09:51 pm- 0.0-----29.96- 39.0- 33.1---
2024-03-02 08:51 pm- 0.0-----29.97- 37.9- 33.1---
2024-03-02 07:51 pm- 6.0-----29.97- 37.9- 33.1---
2024-03-02 06:51 pm SE 4.1-----29.99- 37.9- 33.1---
2024-03-02 05:51 pm- 2.9-----29.97- 41.0- 30.9---
2024-03-02 04:51 pm- 5.1-----29.94- 41.0- 32.0---
2024-03-02 03:51 pm- 0.0-----29.96- 39.9- 34.0---
2024-03-02 02:51 pm- 0.0-----29.96- 39.9- 34.0---
2024-03-02 01:51 pmNNE 5.1-----29.97- 39.0- 34.0---
2024-03-02 12:51 pm N 13.0-----29.96- 43.0- 30.9---
2024-03-02 11:51 am N 14.0-----29.93- 43.0- 32.0---
2024-03-02 10:51 am N 13.0-----29.93- 42.1- 32.0---
2024-03-02 09:51 am- 0.0-----29.90- 46.9- 30.0---
2024-03-02 08:51 am SW 4.1-----29.91- 43.0- 28.9---